Ithaca, NY

10:01 AM EDT on July 25, 2017 (GMT -0400)
Tompkins County

Weather History for KITH - November, 2010

Change the Weather History Date:

Thursday, November 11, 2010

  Actual Average Record
Temperature  
Mean Temperature 40 °F -  
Max Temperature 54 °F 48 °F 69 °F (1996)
Min Temperature 27 °F 32 °F 15 °F (1961)
Degree Days  
Heating Degree Days 24    
Moisture  
Dew Point 30 °F    
Average Humidity 79    
Maximum Humidity 96    
Minimum Humidity 40    
Precipitation  
Precipitation 0.00 in - - ()
Sea Level Pressure  
Sea Level Pressure 30.46 in    
Wind  
Wind Speed 3 mph (NE)    
Max Wind Speed 8 mph    
Max Gust Speed -    
Visibility 9 miles    
Events Fog    
Averages and records for this station are not official NWS values.
T = Trace of Precipitation, MM = Missing Value Source: NWS Daily Summary

Daily Weather History Graph

Daily Weather History Graph

Search for Another Location

Airport or City:

Trip Planner

Search our weather history database for the weather conditions in past years. The results will help you decide how hot, cold, wet, or windy it might be!

Date:

Astronomy

Nov. 11, 2010 Rise Set
Actual Time 6:51 AM EST 4:47 PM EST
Civil Twilight 6:21 AM EST 5:17 PM EST
Nautical Twilight 5:48 AM EST 5:51 PM EST
Astronomical Twilight 5:14 AM EST 6:24 PM EST
Moon 11:51 AM EST (11/11) 9:50 PM EST (11/11)
Length of Visible Light 10h 55m
Length of Day
9h 55m
Waxing Crescent, 31% of the Moon is Illuminated
Nov 11
Waxing Crescent
Nov 13
First Quarter
Nov 21
Full
Nov 28
Last Quarter
Dec 5
New

Hourly Weather History & Observations

Time (EST) Temp. Windchill Dew Point Humidity Pressure Visibility Wind Dir Wind Speed Gust Speed Precip Events Conditions
12:56 AM 28.0 °F - 27.1 °F 96% 30.37 in 6.0 mi Calm Calm - N/A   Clear
2:56 AM 27.1 °F 23.2 °F 26.1 °F 96% 30.38 in 5.0 mi East 3.5 mph - N/A   Clear
3:56 AM 28.0 °F 21.7 °F 27.1 °F 96% 30.40 in 6.0 mi ENE 5.8 mph - N/A   Clear
4:56 AM 28.0 °F 22.8 °F 27.1 °F 96% 30.42 in 6.0 mi ENE 4.6 mph - N/A   Clear
5:56 AM 28.0 °F 21.7 °F 27.1 °F 96% 30.43 in 8.0 mi ENE 5.8 mph - N/A   Clear
6:26 AM 28.4 °F 22.2 °F 26.6 °F 93% 30.39 in 10.0 mi ENE 5.8 mph - N/A   Clear
6:56 AM 28.0 °F 21.7 °F 27.1 °F 96% 30.44 in 10.0 mi ENE 5.8 mph - N/A   Clear
7:56 AM 31.1 °F 23.7 °F 29.1 °F 92% 30.46 in 10.0 mi ENE 8.1 mph - N/A Fog Clear
8:56 AM 34.9 °F - 32.0 °F 89% 30.47 in 10.0 mi Calm Calm - N/A Fog Clear
9:56 AM 41.0 °F - 34.0 °F 76% 30.48 in 10.0 mi Calm Calm - N/A Fog Clear
10:56 AM 45.9 °F - 31.1 °F 56% 30.47 in 10.0 mi Calm Calm - N/A   Clear
11:56 AM 50.0 °F - 31.1 °F 48% 30.46 in 10.0 mi West 5.8 mph - N/A   Clear
12:56 PM 52.0 °F - 28.0 °F 40% 30.46 in 10.0 mi West 5.8 mph - N/A   Clear
1:56 PM 54.0 °F - 31.1 °F 42% 30.46 in 10.0 mi WNW 5.8 mph - N/A   Clear
2:56 PM 54.0 °F - 34.0 °F 47% 30.46 in 10.0 mi West 6.9 mph - N/A   Clear
3:56 PM 52.0 °F - 36.0 °F 54% 30.47 in 10.0 mi NW 3.5 mph - N/A   Clear
4:56 PM 41.9 °F 40.0 °F 32.0 °F 68% 30.47 in 10.0 mi WNW 3.5 mph - N/A   Clear
5:56 PM 36.9 °F - 32.0 °F 83% 30.48 in 10.0 mi Calm Calm - N/A   Clear
6:56 PM 36.0 °F - 32.0 °F 86% 30.50 in 10.0 mi Calm Calm - N/A   Clear
7:56 PM 32.9 °F - 31.1 °F 93% 30.51 in 10.0 mi Calm Calm - N/A   Clear
8:56 PM 31.1 °F 25.4 °F 29.1 °F 92% 30.51 in 10.0 mi East 5.8 mph - N/A   Clear
9:56 PM 34.0 °F 28.8 °F 29.1 °F 82% 30.49 in 10.0 mi East 5.8 mph - N/A   Clear
10:56 PM 28.0 °F - 24.1 °F 85% 30.50 in 10.0 mi Calm Calm - N/A   Clear
11:56 PM 29.1 °F 22.1 °F 25.2 °F 85% 30.49 in 10.0 mi ENE 6.9 mph - N/A   Clear